EW4363 Weather Reports


Display with metric or nautical units.
time (UTC)temp
F
wind
direction
speed
MPH
gust
MPH
rain 1hr
in
rain 24hr
in
rain mn
in
humidity
%
barometer
mb
20260906105307 97 299 1.0 3.0 0.00 0.00 0.00 30 1019.2
20260906104806 97 304 2.0 9.0 0.00 0.00 0.00 30 1019.3
20260906103807 97 324 2.0 5.0 0.00 0.00 0.00 29 1019.4
20260906103306 97 314 2.0 3.0 0.00 0.00 0.00 30 1019.5
20260906102807 96 317 2.0 6.0 0.00 0.00 0.00 31 1019.6
20260906102306 96 324 1.0 5.0 0.00 0.00 0.00 32 1019.5
20260906101806 96 322 1.0 3.0 0.00 0.00 0.00 34 1019.6
20260906101306 95 310 0.0 3.0 0.00 0.00 0.00 35 1019.6
20260906095806 94 313 1.0 3.0 0.00 0.00 0.00 38 1019.8
20260906095306 93 286 0.0 0.0 0.00 0.00 0.00 39 1019.8
20260906094806 92 286 0.0 1.0 0.00 0.00 0.00 40 1019.8
20260906093806 91 327 0.0 2.0 0.00 0.00 0.00 41 1019.9
20260906093306 90 289 0.0 3.0 0.00 0.00 0.00 42 1019.9
20260906092806 90 250 0.0 2.0 0.00 0.00 0.00 42 1020.0
20260906092307 89 328 1.0 2.0 0.00 0.00 0.00 42 1020.0
20260906091806 89 299 1.0 2.0 0.00 0.00 0.00 42 1020.0
20260906091307 89 321 1.0 2.0 0.00 0.00 0.00 43 1020.0
20260906090806 88 251 0.0 0.0 0.00 0.00 0.00 44 1020.0
20260906085806 86 251 0.0 3.0 0.00 0.00 0.00 46 1020.0
20260906085307 86 267 1.0 3.0 0.00 0.00 0.00 46 1020.0
20260906084806 85 267 0.0 0.0 0.00 0.00 0.00 48 1020.0
20260906083306 83 272 1.0 3.0 0.00 0.00 0.00 50 1019.9
20260906082806 82 269 1.0 5.0 0.00 0.00 0.00 51 1019.8
20260906081806 81 269 1.0 5.0 0.00 0.00 0.00 53 1019.9
20260906081306 81 274 2.0 5.0 0.00 0.00 0.00 53 1019.9
20260906080807 80 262 1.0 3.0 0.00 0.00 0.00 54 1019.8
20260906080306 80 269 2.0 5.0 0.00 0.00 0.00 55 1019.8
20260906075807 79 269 3.0 6.0 0.00 0.00 0.00 55 1019.8
20260906075306 79 271 3.0 6.0 0.00 0.00 0.00 55 1019.8
20260906074806 79 280 2.0 7.0 0.00 0.00 0.00 56 1019.8
20260906074307 79 272 1.0 5.0 0.00 0.00 0.00 56 1019.8
20260906073306 77 279 1.0 5.0 0.00 0.00 0.00 58 1019.8
20260906072806 77 268 3.0 3.0 0.00 0.00 0.00 58 1019.9
20260906071806 76 271 3.0 6.0 0.00 0.00 0.00 59 1019.8
20260906071306 76 257 1.0 6.0 0.00 0.00 0.00 59 1019.7
20260906070806 76 269 2.0 3.0 0.00 0.00 0.00 60 1019.8
20260906070306 75 262 2.0 6.0 0.00 0.00 0.00 61 1019.7
20260906065806 75 271 2.0 6.0 0.00 0.00 0.00 62 1019.7
20260906065306 75 268 3.0 6.0 0.00 0.00 0.00 62 1019.7
20260906064307 74 272 4.0 10.0 0.00 0.00 0.00 62 1019.6
20260906063807 74 276 3.0 7.0 0.00 0.00 0.00 63 1019.6
20260906063307 74 277 3.0 9.0 0.00 0.00 0.00 63 1019.6
20260906062806 74 267 2.0 8.0 0.00 0.00 0.00 63 1019.6
20260906062307 74 271 2.0 7.0 0.00 0.00 0.00 63 1019.5
20260906061306 74 270 2.0 7.0 0.00 0.00 0.00 63 1019.4
20260906060806 74 271 3.0 9.0 0.00 0.00 0.00 63 1019.3
20260906060307 74 273 4.0 10.0 0.00 0.00 0.00 63 1019.3
20260906055806 74 273 2.0 7.0 0.00 0.00 0.00 63 1019.2
20260906055307 74 272 3.0 7.0 0.00 0.00 0.00 63 1019.2
20260906054806 74 273 4.0 10.0 0.00 0.00 0.00 63 1019.2
20260906054307 74 281 2.0 10.0 0.00 0.00 0.00 63 1019.2
20260906053806 74 278 4.0 10.0 0.00 0.00 0.00 63 1019.1
20260906053306 74 272 3.0 10.0 0.00 0.00 0.00 63 1019.1
20260906052806 74 275 2.0 9.0 0.00 0.00 0.00 63 1019.1
20260906052306 74 273 3.0 7.0 0.00 0.00 0.00 64 1019.1
20260906051807 74 276 2.0 5.0 0.00 0.00 0.00 64 1019.0
20260906050806 74 269 2.0 5.0 0.00 0.00 0.00 64 1019.0
20260906050307 74 267 3.0 8.0 0.00 0.00 0.00 64 1019.0
20260906045806 74 269 2.0 6.0 0.00 0.00 0.00 64 1019.1
20260906045306 74 272 3.0 7.0 0.00 0.00 0.00 64 1019.1
20260906044306 74 270 3.0 7.0 0.00 0.00 0.00 64 1019.1
20260906043806 74 276 3.0 10.0 0.00 0.00 0.00 65 1019.1
20260906043306 74 275 3.0 7.0 0.00 0.00 0.00 65 1019.1
20260906042807 74 270 3.0 7.0 0.00 0.00 0.00 65 1019.1
20260906042307 74 269 2.0 5.0 0.00 0.00 0.00 65 1019.2
20260906041807 74 305 2.0 6.0 0.00 0.00 0.00 66 1019.2
20260906041306 74 282 3.0 9.0 0.00 0.00 0.00 65 1019.2
20260906040807 74 277 3.0 9.0 0.00 0.00 0.00 65 1019.3
20260906040306 74 277 2.0 7.0 0.00 0.00 0.00 65 1019.3
20260906035806 74 277 1.0 6.0 0.00 0.00 0.00 65 1019.3
20260906035306 74 267 3.0 6.0 0.00 0.00 0.00 65 1019.3
20260906034807 74 270 1.0 3.0 0.00 0.00 0.00 65 1019.4
20260906034307 74 272 0.0 3.0 0.00 0.00 0.00 65 1019.4
20260906033806 74 296 1.0 2.0 0.00 0.00 0.00 65 1019.4
20260906033306 74 261 0.0 2.0 0.00 0.00 0.00 65 1019.5
20260906032806 74 326 0.0 2.0 0.00 0.00 0.00 65 1019.4
20260906032307 74 314 0.0 2.0 0.00 0.00 0.00 66 1019.5
20260906031806 75 268 0.0 2.0 0.00 0.00 0.00 65 1019.5
20260906031307 75 274 0.0 5.0 0.00 0.00 0.00 64 1019.5
20260906030807 75 261 2.0 5.0 0.00 0.00 0.00 64 1019.5
20260906030306 75 269 2.0 5.0 0.00 0.00 0.00 64 1019.5
20260906025806 74 274 0.0 2.0 0.00 0.00 0.00 65 1019.5
20260906025306 74 274 0.0 3.0 0.00 0.00 0.00 66 1019.5
20260906024806 73 256 0.0 0.0 0.00 0.00 0.00 67 1019.6
20260906024306 73 277 0.0 0.0 0.00 0.00 0.00 68 1019.6
20260906023806 74 277 0.0 0.0 0.00 0.00 0.00 69 1019.6
20260906023307 74 277 0.0 1.0 0.00 0.00 0.00 68 1019.6
20260906022807 74 267 0.0 0.0 0.00 0.00 0.00 68 1019.6
20260906022307 74 267 0.0 0.0 0.00 0.00 0.00 67 1019.6
20260906021807 74 267 0.0 2.0 0.00 0.00 0.00 67 1019.6
20260906021306 74 333 0.0 2.0 0.00 0.00 0.00 68 1019.7
20260906020806 74 284 0.0 0.0 0.00 0.00 0.00 71 1019.6
20260906020307 73 285 0.0 2.0 0.00 0.00 0.00 71 1019.7
20260906015807 73 288 0.0 0.0 0.00 0.00 0.00 71 1019.7
20260906015307 73 288 0.0 0.0 0.00 0.00 0.00 71 1019.7
20260906014806 73 288 0.0 1.0 0.00 0.00 0.00 72 1019.8
20260906014307 73 253 0.0 1.0 0.00 0.00 0.00 72 1019.7
20260906013306 74 253 0.0 0.0 0.00 0.00 0.00 72 1019.7
20260906012806 74 252 0.0 1.0 0.00 0.00 0.00 72 1019.7
20260906012308 74 283 0.0 0.0 0.00 0.00 0.00 73 1019.7
20260906011808 74 283 0.0 1.0 0.00 0.00 0.00 73 1019.7
20260906010806 75 283 0.0 1.0 0.00 0.00 0.00 71 1019.6
20260906010305 75 256 1.0 3.0 0.00 0.00 0.00 69 1019.6
20260906005306 74 335 0.0 0.0 0.00 0.00 0.00 74 1019.8
20260906004305 75 335 0.0 0.0 0.00 0.00 0.00 73 1019.9
20260906003805 75 335 0.0 1.0 0.00 0.00 0.00 72 1019.9
20260906003304 75 265 0.0 0.0 0.00 0.00 0.00 72 1019.9
20260906002805 75 265 0.0 1.0 0.00 0.00 0.00 73 1019.9
20260906002306 75 265 0.0 1.0 0.00 0.00 0.00 73 1019.9
20260906001805 76 328 0.0 1.0 0.00 0.00 0.00 72 1020.0
20260906001306 76 330 0.0 0.0 0.00 0.00 0.00 71 1020.0
20260906000805 76 267 1.0 3.0 0.00 0.00 0.00 69 1020.1
20260906000304 75 266 0.0 3.0 0.00 0.00 0.00 74 1020.1
20260905235805 75 333 0.0 0.0 0.00 0.00 0.00 75 1020.1
20260905235307 76 333 0.0 0.0 0.00 0.00 0.00 73 1020.1
20260905234806 76 333 0.0 0.0 0.00 0.00 0.00 72 1020.1
20260905234305 76 336 0.0 0.0 0.00 0.00 0.00 72 1020.1
20260905233806 76 336 0.0 0.0 0.00 0.00 0.00 71 1020.2
20260905233306 77 336 0.0 2.0 0.00 0.00 0.00 71 1020.2
20260905232306 76 324 0.0 0.0 0.00 0.00 0.00 73 1020.3
20260905231305 77 324 0.0 0.0 0.00 0.00 0.00 73 1020.4
20260905230805 77 324 0.0 0.0 0.00 0.00 0.00 73 1020.5
20260905230305 77 324 0.0 0.0 0.00 0.00 0.00 73 1020.5
20260905225805 77 324 0.0 0.0 0.00 0.00 0.00 73 1020.6
20260905225306 77 324 0.0 0.0 0.00 0.00 0.00 73 1020.6
20260905224805 77 324 0.0 0.0 0.00 0.00 0.00 73 1020.6
20260905224305 78 324 0.0 0.0 0.00 0.00 0.00 74 1020.5
20260905223805 78 324 0.0 0.0 0.00 0.00 0.00 73 1020.4
20260905223305 78 324 0.0 0.0 0.00 0.00 0.00 73 1020.4
20260905222805 78 324 0.0 0.0 0.00 0.00 0.00 72 1020.4
20260905221305 78 324 0.0 0.0 0.00 0.00 0.00 69 1020.4
20260905220306 79 324 0.0 0.0 0.00 0.00 0.00 71 1020.4
20260905215805 79 324 0.0 0.0 0.00 0.00 0.00 72 1020.4
20260905215306 79 324 0.0 0.0 0.00 0.00 0.00 70 1020.4
20260905214805 79 324 0.0 0.0 0.00 0.00 0.00 70 1020.4
20260905214305 80 324 0.0 0.0 0.00 0.00 0.00 69 1020.4
20260905213805 80 324 0.0 0.0 0.00 0.00 0.00 71 1020.4
20260905213305 80 324 0.0 0.0 0.00 0.00 0.00 72 1020.4
20260905212805 80 324 0.0 0.0 0.00 0.00 0.00 70 1020.3
20260905212306 80 324 0.0 0.0 0.00 0.00 0.00 70 1020.3
20260905211805 81 324 0.0 0.0 0.00 0.00 0.00 69 1020.4
20260905211305 81 324 0.0 0.0 0.00 0.00 0.00 69 1020.5
20260905210806 81 324 0.0 0.0 0.00 0.00 0.00 69 1020.6
20260905210306 81 324 0.0 0.0 0.00 0.00 0.00 69 1020.6
20260905205805 81 324 0.0 0.0 0.00 0.00 0.00 68 1020.5
20260905205306 82 324 0.0 0.0 0.00 0.00 0.00 67 1020.5
20260905204805 82 324 0.0 0.0 0.00 0.00 0.00 67 1020.6
20260905204305 82 324 0.0 0.0 0.00 0.00 0.00 67 1020.6
20260905203806 82 324 0.0 0.0 0.00 0.00 0.00 67 1020.6
20260905203305 82 324 0.0 0.0 0.00 0.00 0.00 67 1020.6
20260905202806 82 324 0.0 0.0 0.00 0.00 0.00 67 1020.6
20260905202306 83 324 0.0 0.0 0.00 0.00 0.00 67 1020.6
20260905201805 83 324 0.0 0.0 0.00 0.00 0.00 66 1020.5
20260905201306 83 324 0.0 0.0 0.00 0.00 0.00 66 1020.5
20260905200805 83 324 0.0 0.0 0.00 0.00 0.00 64 1020.5
20260905195805 83 324 0.0 0.0 0.00 0.00 0.00 63 1020.3
20260905195307 83 324 0.0 0.0 0.00 0.00 0.00 62 1020.2
20260905194805 84 324 0.0 0.0 0.00 0.00 0.00 62 1020.2
20260905194306 84 324 0.0 0.0 0.00 0.00 0.00 61 1020.2
20260905193805 84 324 0.0 0.0 0.00 0.00 0.00 61 1020.2
20260905192805 84 324 0.0 0.0 0.00 0.00 0.00 60 1020.1
20260905192306 84 324 0.0 0.0 0.00 0.00 0.00 60 1020.0
20260905191805 85 324 0.0 0.0 0.00 0.00 0.00 59 1020.0
20260905191305 85 324 0.0 0.0 0.00 0.00 0.00 58 1019.9
20260905190806 85 323 0.0 1.0 0.00 0.00 0.00 57 1019.9
20260905185806 85 324 0.0 0.0 0.00 0.00 0.00 56 1019.8
20260905185306 86 324 0.0 1.0 0.00 0.00 0.00 56 1019.8
20260905184305 86 325 0.0 1.0 0.00 0.00 0.00 55 1019.7
20260905183805 86 323 0.0 1.0 0.00 0.00 0.00 55 1019.7
20260905183306 86 325 0.0 1.0 0.00 0.00 0.00 55 1019.7
20260905182805 87 324 1.0 2.0 0.00 0.00 0.00 54 1019.6
20260905182306 87 325 0.0 2.0 0.00 0.00 0.00 54 1019.6
20260905181306 88 326 1.0 2.0 0.00 0.00 0.00 53 1019.6
20260905180805 88 321 0.0 1.0 0.00 0.00 0.00 53 1019.6
20260905180305 89 325 1.0 2.0 0.00 0.00 0.00 53 1019.5
20260905175805 89 325 1.0 2.0 0.00 0.00 0.00 53 1019.5
20260905175306 89 328 0.0 2.0 0.00 0.00 0.00 52 1019.5
20260905174805 89 328 0.0 1.0 0.00 0.00 0.00 52 1019.4
20260905174305 90 328 0.0 2.0 0.00 0.00 0.00 52 1019.4
20260905173805 90 315 1.0 3.0 0.00 0.00 0.00 51 1019.4
20260905173306 91 323 0.0 2.0 0.00 0.00 0.00 51 1019.4
20260905172805 91 327 2.0 5.0 0.00 0.00 0.00 50 1019.4
20260905172305 92 323 2.0 5.0 0.00 0.00 0.00 49 1019.4
20260905171805 92 321 1.0 3.0 0.00 0.00 0.00 48 1019.4
20260905170805 93 325 2.0 6.0 0.00 0.00 0.00 47 1019.3
20260905170305 93 329 1.0 5.0 0.00 0.00 0.00 48 1019.3
20260905165806 93 325 1.0 5.0 0.00 0.00 0.00 47 1019.3
20260905165306 93 317 2.0 3.0 0.00 0.00 0.00 46 1019.2
20260905164305 94 316 2.0 5.0 0.00 0.00 0.00 46 1019.1
20260905163805 94 323 2.0 6.0 0.00 0.00 0.00 45 1019.1
20260905162805 95 307 2.0 5.0 0.00 0.00 0.00 45 1019.1
20260905162306 95 326 1.0 5.0 0.00 0.00 0.00 45 1019.2
20260905161805 95 313 2.0 5.0 0.00 0.00 0.00 45 1019.2
20260905161305 95 320 2.0 5.0 0.00 0.00 0.00 45 1019.2
20260905160805 95 323 1.0 7.0 0.00 0.00 0.00 45 1019.2
20260905160305 95 317 2.0 6.0 0.00 0.00 0.00 44 1019.1
20260905155805 95 331 2.0 5.0 0.00 0.00 0.00 43 1019.1
20260905155306 96 314 1.0 5.0 0.00 0.00 0.00 43 1019.1
20260905154806 96 309 2.0 5.0 0.00 0.00 0.00 43 1019.1
20260905154305 96 321 1.0 5.0 0.00 0.00 0.00 43 1019.2
20260905152806 96 324 3.0 6.0 0.00 0.00 0.00 42 1019.1
20260905151806 96 307 3.0 8.0 0.00 0.00 0.00 39 1019.1
20260905151305 97 316 3.0 9.0 0.00 0.00 0.00 39 1019.2
20260905150305 97 307 3.0 7.0 0.00 0.00 0.00 36 1019.2
20260905145806 97 329 1.0 10.0 0.00 0.00 0.00 36 1019.3
20260905145307 97 320 3.0 9.0 0.00 0.00 0.00 35 1019.2
20260905144805 97 318 3.0 7.0 0.00 0.00 0.00 35 1019.3
20260905143806 97 320 5.0 7.0 0.00 0.00 0.00 32 1019.4
20260905143305 97 316 5.0 9.0 0.00 0.00 0.00 32 1019.4
20260905142805 98 316 3.0 7.0 0.00 0.00 0.00 31 1019.4
20260905142306 98 318 3.0 9.0 0.00 0.00 0.00 31 1019.4
20260905141805 98 318 3.0 10.0 0.00 0.00 0.00 30 1019.5
20260905141306 98 322 3.0 10.0 0.00 0.00 0.00 30 1019.5
20260905140806 98 316 3.0 8.0 0.00 0.00 0.00 30 1019.5
20260905140305 98 317 5.0 12.0 0.00 0.00 0.00 29 1019.5
20260905135806 98 317 4.0 9.0 0.00 0.00 0.00 29 1019.5
20260905135307 98 317 4.0 9.0 0.00 0.00 0.00 28 1019.5
20260905134805 98 317 3.0 10.0 0.00 0.00 0.00 28 1019.5
20260905134306 99 317 5.0 9.0 0.00 0.00 0.00 28 1019.5
20260905133805 99 313 5.0 10.0 0.00 0.00 0.00 27 1019.6
20260905133306 99 312 3.0 9.0 0.00 0.00 0.00 28 1019.6
20260905132806 99 312 4.0 7.0 0.00 0.00 0.00 27 1019.5
20260905132306 99 322 5.0 10.0 0.00 0.00 0.00 27 1019.5
20260905131805 100 320 4.0 8.0 0.00 0.00 0.00 27 1019.6
20260905131306 100 309 2.0 8.0 0.00 0.00 0.00 27 1019.6
20260905130805 100 312 3.0 7.0 0.00 0.00 0.00 27 1019.7
20260905130306 100 321 4.0 12.0 0.00 0.00 0.00 27 1019.7
20260905125306 100 313 3.0 8.0 0.00 0.00 0.00 27 1019.6
20260905124305 100 322 4.0 10.0 0.00 0.00 0.00 27 1019.6
20260905123806 100 311 3.0 8.0 0.00 0.00 0.00 27 1019.7
20260905123306 99 315 2.0 8.0 0.00 0.00 0.00 27 1019.7
20260905122805 100 317 3.0 7.0 0.00 0.00 0.00 27 1019.7
20260905122307 100 311 3.0 5.0 0.00 0.00 0.00 27 1019.8
20260905121805 100 315 3.0 7.0 0.00 0.00 0.00 27 1019.8
20260905121305 100 317 2.0 8.0 0.00 0.00 0.00 27 1019.9
20260905120805 100 317 3.0 7.0 0.00 0.00 0.00 27 1019.9
20260905120305 99 317 2.0 6.0 0.00 0.00 0.00 28 1019.9
20260905115806 99 321 3.0 10.0 0.00 0.00 0.00 27 1020.1
20260905115306 100 307 3.0 6.0 0.00 0.00 0.00 27 1020.1
20260905114805 99 320 3.0 7.0 0.00 0.00 0.00 27 1020.1
20260905114306 100 317 3.0 9.0 0.00 0.00 0.00 27 1020.2
20260905113806 100 328 2.0 8.0 0.00 0.00 0.00 27 1020.2
20260905113306 100 308 1.0 3.0 0.00 0.00 0.00 27 1020.2
20260905112806 99 318 2.0 8.0 0.00 0.00 0.00 27 1020.3
20260905112306 100 325 2.0 5.0 0.00 0.00 0.00 27 1020.2
20260905111306 99 315 1.0 6.0 0.00 0.00 0.00 28 1020.3
20260905110805 98 321 2.0 5.0 0.00 0.00 0.00 28 1020.3
20260905110306 98 318 1.0 10.0 0.00 0.00 0.00 28 1020.3
20260905105806 98 317 2.0 6.0 0.00 0.00 0.00 28 1020.3